Location: Saint-Palais-sur-Mer
(45.6429°N, 1.0859°W)
Time: 14:44:33
(UTC+02:00)

QB50P2 - Visible Passes

Search period start: 24 April 2025 00:00
Search period end: 04 May 2025 00:00
Orbit: 537 x 550 km, 98.0° (Epoch: 23 April)

Date Brightness Start Highest point End Pass type
(mag) Time Alt. Az. Time Alt. Az. Time Alt. Az.
24 Apr ? 05:37:31 10° NNE 05:41:20 52° E 05:45:07 10° S visible
25 Apr ? 05:31:19 10° NNE 05:35:03 43° E 05:38:45 10° S visible
26 Apr ? 05:25:06 10° NNE 05:28:44 36° E 05:32:20 10° SSE visible
27 Apr ? 05:18:54 10° NNE 05:22:23 31° E 05:25:51 10° SSE visible
28 Apr ? 05:12:42 10° NE 05:16:01 26° E 05:19:19 10° SSE visible
29 Apr ? 05:06:31 10° NE 05:09:37 22° E 05:12:41 10° SSE visible
30 Apr ? 05:00:21 10° NE 05:03:10 19° E 05:05:59 10° SE visible
01 May ? 04:54:14 10° NE 04:56:43 16° E 04:59:11 10° SE visible
02 May ? 04:48:11 10° ENE 04:50:14 14° E 04:52:15 10° ESE visible
03 May ? 04:42:20 10° ENE 04:43:42 12° E 04:45:05 10° ESE visible
03 May ? 06:14:47 10° N 06:18:38 60° WNW 06:22:27 10° SSW visible
